Wind_Speed
16 16 16 14 11 6 5 9 9 6 6 5 4 3 4 4 2 3 3 3 3 4 7 7 8 12 12 11 13 12 23 42 41 36 42 45 43 45 46 47 47 48 49 49 50 51 51 51 51 51 50 49 49 48 48 49 49 49 51 52 52 50 47
20 18 17 16 14 9 6 9 9 5 5 6 4 3 3 4 4 4 6 8 6 5 6 8 10 12 12 13 14 11 16 32 35 35 42 44 44 46 46 47 48 47 48 49 51 52 52 53 54 54 52 49 47 47 47 48 48 49 50 52 53 52 50
18 17 16 13 15 16 9 7 9 7 5 6 5 4 3 5 5 4 8 11 9 7 7 9 14 16 12 11 15 15 14 21 27 34 41 42 44 44 43 45 47 47 48 48 49 51 52 53 53 53 51 48 46 46 46 46 47 48 48 50 52 52 51
15 12 11 10 12 15 11 7 9 8 6 5 5 4 2 4 4 4 6 7 7 7 8 13 17 18 14 9 10 13 13 20 28 34 39 41 42 42 43 45 47 48 49 49 48 49 50 51 51 50 50 48 46 47 47 46 46 46 47 49 51 52 52
14 10 10 12 13 12 11 8 8 8 6 4 4 4 3 3 2 3 4 5 5 6 7 13 17 17 15 12 10 9 10 22 33 36 40 43 44 44 45 46 48 48 49 49 49 48 47 48 48 48 49 48 47 48 48 47 46 46 47 49 51 52 52
11 12 13 14 15 14 11 8 6 9 8 6 6 6 5 5 3 3 4 3 6 6 4 9 16 16 14 13 12 9 8 20 33 38 41 45 46 48 48 48 48 48 48 49 49 48 46 45 46 47 48 48 47 48 49 48 46 46 47 49 51 52 53
7 12 15 16 16 16 13 10 7 8 9 8 6 6 6 6 5 5 3 3 6 6 5 7 14 14 12 14 12 9 9 17 29 38 43 44 45 48 49 47 47 48 49 50 49 48 46 45 46 47 47 48 49 49 48 47 46 46 47 48 50 51 52
9 10 14 17 16 15 12 11 9 7 9 10 6 4 6 6 6 6 3 3 5 7 7 2 11 12 11 13 13 12 11 15 28 41 44 41 41 46 49 46 45 48 48 48 49 47 46 47 47 48 49 49 49 48 46 45 45 46 47 48 49 51 52
7 8 11 15 15 14 9 10 12 10 10 13 9 4 5 5 7 8 4 3 6 6 7 7 10 11 12 13 15 16 14 14 27 41 46 45 42 43 48 46 44 47 47 46 48 47 46 47 48 49 50 50 50 47 44 42 43 45 47 49 49 50 51
4 4 6 8 11 11 8 10 15 14 13 14 10 5 4 4 8 9 6 4 6 5 4 7 8 7 9 10 10 12 12 12 23 36 43 48 46 43 47 48 45 46 46 45 46 45 45 46 46 47 48 49 49 45 41 41 41 42 45 47 49 50 51
6 6 5 5 12 13 10 11 15 16 16 13 9 7 5 4 6 6 6 6 4 2 3 6 5 4 5 6 8 9 10 12 20 33 39 45 47 43 46 50 48 47 47 46 45 43 44 46 46 46 46 46 45 42 40 41 41 41 43 45 47 49 50
10 11 13 8 11 17 17 15 14 16 19 17 10 9 8 6 7 5 7 8 7 5 2 4 6 5 8 8 8 9 13 16 19 33 40 41 41 40 44 49 49 48 48 48 47 46 46 46 47 46 45 43 42 41 41 42 42 42 42 42 45 46 48
13 13 14 12 7 11 17 18 16 15 19 21 15 9 10 9 7 5 7 10 9 6 5 5 6 6 9 11 14 16 19 21 19 27 36 34 32 34 40 45 47 47 47 47 48 48 47 46 45 45 45 43 42 42 43 43 43 43 42 42 43 45 46
13 12 10 10 8 2 7 14 18 15 15 21 19 11 9 10 8 7 8 12 10 7 7 5 3 12 15 16 20 22 22 25 25 22 26 27 28 33 37 41 45 46 46 46 46 47 47 44 42 43 44 44 44 44 44 44 44 44 43 43 44 45 46
7 8 9 11 11 6 1 5 14 16 14 18 20 14 9 8 8 9 10 10 8 6 6 5 9 18 18 14 16 19 21 25 26 23 22 24 27 32 35 38 41 42 43 44 43 44 43 42 41 41 42 43 44 43 43 43 43 43 43 43 44 45 46
4 4 5 13 14 7 4 4 6 9 8 12 17 15 9 7 9 8 8 7 5 5 8 8 11 16 15 11 11 16 21 23 22 22 21 22 25 28 31 35 37 37 38 39 37 37 37 37 40 41 40 40 42 43 42 42 41 42 42 43 44 45 45
6 5 5 12 11 6 4 6 3 2 3 5 14 15 10 7 9 8 5 6 7 6 10 11 12 13 12 10 13 19 25 27 24 20 19 21 22 23 27 30 30 30 28 26 27 30 34 37 39 41 40 38 38 39 40 39 39 41 42 43 43 45 46
7 9 9 8 5 3 4 2 2 5 5 6 9 17 15 9 6 7 7 5 4 8 11 11 11 12 12 14 18 22 24 24 22 19 18 20 19 17 19 21 21 22 20 18 20 25 30 34 35 36 37 36 34 35 36 37 38 39 41 42 43 44 45
6 8 7 4 2 5 4 3 7 6 3 6 4 9 9 6 3 4 10 9 7 8 10 12 15 19 23 24 25 25 25 25 24 22 19 18 17 15 16 14 14 18 18 16 16 18 19 23 26 29 31 32 31 31 32 35 36 37 38 40 42 44 45
4 4 2 3 3 6 3 6 9 8 5 2 9 15 9 10 14 8 6 14 14 10 10 15 23 30 33 31 31 33 32 30 30 29 27 26 26 23 20 17 15 17 17 14 13 14 14 14 17 22 26 28 30 29 30 32 34 35 37 39 41 42 43
3 4 4 3 3 5 5 8 10 12 10 3 5 10 12 17 22 20 7 11 18 15 12 17 25 32 30 22 22 30 31 29 30 30 29 28 27 25 23 21 20 19 19 17 15 17 16 12 11 16 21 24 27 28 29 31 33 33 34 38 41 42 42
3 5 4 2 2 2 7 13 16 16 16 8 7 12 13 17 22 23 17 7 11 15 13 15 21 25 21 9 10 22 27 26 28 29 27 24 21 20 18 17 17 15 13 12 12 14 14 12 13 15 16 17 22 26 27 30 32 33 34 36 38 41 42
5 4 2 3 2 2 11 18 17 20 24 14 6 13 11 14 19 22 21 16 13 10 12 15 15 15 11 5 7 19 25 25 25 25 25 23 19 16 14 13 15 14 11 10 10 7 5 9 12 14 13 12 14 20 25 28 29 31 35 37 37 38 40
5 4 2 3 0 3 14 19 17 25 29 13 7 9 6 11 18 22 22 19 19 19 19 19 13 9 8 7 11 20 24 24 25 23 22 21 19 17 14 12 13 12 10 12 12 7 3 4 9 12 14 13 12 13 19 25 29 30 32 34 35 36 37
5 4 1 2 0 4 15 19 21 26 21 6 10 6 3 10 16 22 24 22 24 25 24 19 13 13 17 17 20 24 25 23 23 21 18 17 18 19 15 12 11 10 9 11 10 4 2 4 7 10 14 15 15 13 14 19 26 29 29 29 30 32 34
4 2 0 1 0 6 17 21 23 23 11 5 5 1 4 10 16 21 25 25 24 25 25 23 20 22 25 25 25 26 26 24 23 21 19 16 17 18 14 11 10 9 8 7 4 2 5 6 6 9 12 13 14 13 13 15 20 23 24 26 27 28 30
3 1 2 2 0 9 21 20 17 16 9 4 2 3 7 16 21 21 23 25 25 24 24 25 25 25 26 26 26 25 24 23 22 20 19 17 16 15 13 10 8 7 6 4 2 5 7 8 6 7 11 13 12 11 11 14 16 18 18 19 22 25 28
3 1 2 2 2 7 17 16 10 8 8 11 11 10 12 18 21 22 23 25 27 25 22 22 24 25 25 24 24 23 22 20 18 17 16 15 14 13 10 9 7 4 4 6 6 6 6 7 4 2 5 9 10 10 12 13 15 16 16 15 16 21 26
2 1 3 2 3 10 16 16 14 15 13 18 18 17 16 18 21 22 23 24 26 25 23 23 23 23 23 22 21 21 20 18 16 15 13 12 13 11 8 8 7 3 3 6 7 4 3 2 0 1 2 4 7 10 12 13 13 14 15 15 15 16 20
3 3 4 3 7 14 16 14 14 17 16 18 19 19 18 19 20 21 23 24 24 24 23 24 24 22 22 22 21 20 19 18 16 15 12 9 10 11 10 9 7 4 2 4 4 3 2 2 2 2 2 4 6 8 10 11 13 13 13 14 15 14 15
3 2 3 7 10 12 13 12 11 11 13 16 18 17 17 17 18 20 23 23 22 24 23 23 22 21 20 19 19 18 17 17 17 18 16 11 7 8 10 9 7 5 4 4 5 5 5 4 4 5 4 4 5 6 8 9 11 12 11 12 14 14 14
3 2 5 12 16 14 13 12 13 14 15 15 16 16 16 16 15 17 21 22 22 23 23 22 22 21 19 18 17 16 16 16 16 18 16 11 6 6 8 8 6 5 5 5 5 6 7 6 6 6 6 6 5 6 7 8 9 11 11 10 10 12 13
3 2 5 13 16 13 10 15 21 19 16 15 15 15 16 17 17 16 18 20 21 21 21 21 21 20 18 17 16 15 15 15 15 15 14 10 7 6 6 6 6 5 4 3 4 5 5 5 6 5 6 7 7 6 7 6 6 10 13 11 10 12 13
4 4 8 14 10 7 10 20 25 22 18 15 14 14 15 16 16 16 17 18 19 18 17 19 19 18 16 15 14 14 14 13 13 14 12 10 8 6 5 4 4 5 4 3 4 4 3 5 7 6 6 7 6 5 7 6 5 8 12 13 12 13 14
7 10 15 16 10 7 14 23 25 22 19 16 13 12 12 11 12 13 15 16 18 18 17 16 15 15 14 13 12 13 12 9 10 12 11 9 8 7 5 4 4 5 4 3 4 4 4 5 6 6 7 7 4 4 6 7 7 7 10 12 13 14 15
13 18 23 24 18 13 16 23 26 24 22 20 18 15 12 11 11 12 12 14 16 17 18 16 13 12 13 11 10 10 10 8 8 10 10 9 8 7 5 4 5 4 3 4 5 4 5 6 6 7 8 6 4 4 4 6 8 7 8 11 12 13 14
20 25 29 30 26 22 20 23 26 25 21 20 20 17 14 11 10 10 10 12 12 14 15 15 12 11 13 12 10 9 10 9 8 9 9 7 7 7 6 5 4 4 4 4 3 2 4 6 6 8 10 8 4 5 3 4 6 7 8 10 11 11 12
Wind_Direction
219 196 199 211 205 187 175 195 209 185 160 181 209 214 168 147 202 219 218 254 256 257 265 248 216 222 236 225 211 201 170 170 174 171 172 176 178 179 181 184 187 191 194 194 195 196 196 197 199 201 203 205 206 207 208 209 210 211 211 210 212 215 217
222 209 197 208 215 204 175 189 195 144 154 210 218 219 174 170 211 206 204 227 220 209 234 244 237 229 226 217 213 214 173 168 171 171 173 175 176 179 182 184 188 192 195 197 197 199 200 200 202 204 205 205 206 207 208 209 210 212 213 213 213 215 216
211 210 199 204 214 217 211 173 161 161 197 205 189 206 193 181 211 214 209 217 211 204 200 200 220 231 230 212 204 206 182 165 167 171 174 174 173 176 179 182 188 192 194 197 198 200 201 203 205 205 204 204 206 208 210 211 213 214 215 215 215 215 216
192 197 199 199 204 213 219 183 163 183 205 180 175 204 189 173 198 208 216 217 209 217 201 187 202 217 219 205 193 197 182 167 168 169 171 172 172 174 177 182 189 192 194 196 198 200 201 203 204 203 203 204 206 209 210 213 215 216 216 217 216 216 217
185 191 202 199 190 195 211 202 179 184 186 164 179 206 201 191 196 193 210 231 234 232 205 189 193 202 204 191 184 196 179 170 172 169 168 171 175 177 180 184 189 192 195 197 199 200 201 201 202 202 203 204 206 208 210 213 215 215 216 218 218 218 218
195 195 197 193 187 188 202 209 187 179 180 173 183 204 209 201 224 220 198 235 250 248 234 196 187 191 194 180 178 192 182 175 175 171 170 173 177 180 183 187 190 191 194 196 197 198 198 198 200 201 202 203 204 207 210 212 214 216 218 218 219 219 219
238 209 191 182 183 187 198 214 206 179 179 181 180 191 194 190 228 247 238 267 262 261 267 206 180 179 174 162 166 179 194 191 179 174 176 176 177 182 186 187 189 192 194 195 196 196 195 196 198 199 200 201 204 207 209 211 213 216 219 220 220 220 220
274 246 196 173 177 186 196 213 214 197 188 185 177 172 172 174 206 224 236 266 263 286 312 135 146 147 141 150 166 176 198 200 179 174 176 174 174 183 189 189 189 192 194 194 194 194 193 196 198 199 199 200 202 205 207 210 214 217 220 220 220 221 221
251 247 194 172 176 186 196 205 209 218 200 179 176 180 163 172 201 196 187 244 255 282 337 49 100 121 131 154 177 183 192 187 171 170 173 174 173 178 185 187 187 191 194 194 193 194 195 198 201 202 203 204 204 205 207 210 214 217 219 220 220 221 221
233 230 190 175 177 183 197 198 200 217 215 187 176 177 162 187 207 192 180 224 262 287 12 58 82 109 135 159 164 165 170 162 163 169 171 174 175 174 177 181 182 186 191 192 193 194 197 201 204 205 206 207 207 206 207 211 215 217 219 220 220 221 222
247 258 271 207 174 173 191 199 196 207 218 206 175 164 186 185 182 196 197 184 206 249 88 101 124 117 115 124 103 101 110 119 154 172 173 175 177 173 173 176 177 180 185 189 192 194 198 200 203 205 206 207 207 205 206 209 214 217 218 219 220 221 221
259 266 290 278 188 175 180 195 202 199 207 216 198 173 189 162 139 205 219 157 159 219 189 150 182 146 105 107 100 94 100 107 146 174 175 173 174 173 171 173 176 179 182 187 190 194 197 200 202 205 207 206 204 202 204 208 212 216 218 219 219 220 221
289 276 283 286 245 182 174 189 210 202 195 209 214 185 172 157 142 208 209 153 156 212 211 216 220 161 122 118 111 102 100 101 123 160 165 162 164 167 168 172 175 178 180 184 188 192 196 200 204 207 207 204 202 201 205 208 211 214 217 218 218 219 220
295 291 288 290 292 252 169 186 208 217 200 199 211 209 173 157 163 192 178 158 171 193 189 210 166 123 119 117 112 104 102 101 104 123 137 140 150 160 165 170 175 178 181 185 189 192 195 198 201 204 204 202 202 202 205 208 211 213 215 217 218 218 219
292 310 317 302 290 278 275 189 202 219 214 194 202 215 193 156 173 191 165 156 183 178 146 126 100 102 99 94 96 97 102 108 111 115 116 120 136 153 162 168 174 179 183 188 191 193 196 198 200 200 201 202 202 203 205 208 211 212 213 217 218 218 219
311 328 309 290 291 290 291 276 213 215 227 200 193 205 209 171 171 182 150 144 184 153 116 100 88 87 83 75 73 77 82 89 104 123 130 129 136 148 158 166 172 177 182 187 191 195 198 200 201 200 201 202 203 205 207 210 212 212 214 217 219 220 220
320 344 294 277 300 325 271 254 216 124 332 248 192 191 213 191 166 171 161 179 198 150 108 96 87 78 76 77 71 74 75 71 77 99 123 134 138 147 157 163 167 171 176 181 189 196 199 202 203 202 202 202 204 207 209 210 213 214 215 217 219 221 220
308 329 311 286 304 299 238 248 61 72 11 302 199 183 203 209 164 156 161 175 182 136 117 112 104 92 87 85 76 75 78 75 72 80 104 121 126 136 152 159 165 172 178 182 188 193 196 199 202 202 203 204 207 210 211 212 213 215 216 218 220 222 222
293 322 320 302 277 254 238 52 37 42 11 332 48 124 182 235 314 177 161 130 86 94 109 110 105 98 91 83 71 66 70 74 74 71 80 98 106 117 138 154 169 177 177 175 179 184 189 197 200 201 204 207 210 213 213 214 214 216 218 219 220 224 225
302 331 292 223 247 282 321 49 29 6 334 321 53 60 46 356 347 330 171 132 104 85 85 98 104 98 87 73 61 60 65 70 72 68 68 81 90 97 107 116 132 153 159 156 163 176 185 195 203 207 209 210 212 215 215 215 216 218 220 221 222 224 227
345 333 286 253 300 323 4 21 1 343 328 310 93 69 30 6 1 357 6 124 117 105 92 96 100 93 82 66 52 55 61 65 68 69 70 77 85 89 94 100 110 132 150 153 158 171 177 175 182 201 212 214 216 218 218 219 220 219 221 223 223 225 228
337 325 298 285 297 356 5 347 337 328 321 328 90 83 35 1 357 2 3 33 99 110 112 106 99 86 74 63 48 52 56 59 63 67 68 68 73 78 82 90 94 104 129 142 149 167 180 179 172 181 196 208 215 219 220 221 222 223 224 225 225 226 229
308 315 323 312 263 42 352 339 338 330 317 316 79 78 36 346 341 1 12 14 28 64 92 94 94 85 74 77 55 52 56 58 57 61 63 60 60 60 57 65 73 74 86 103 108 121 167 191 190 190 193 199 210 219 222 222 222 223 225 226 227 228 229
294 286 306 338 92 31 346 337 336 325 314 315 71 73 22 325 335 3 20 23 22 33 57 71 76 77 80 85 65 57 61 61 58 59 60 56 55 49 33 35 52 56 64 75 75 64 60 195 207 211 210 209 213 220 224 223 223 225 226 226 228 230 231
307 305 307 331 109 20 348 338 336 328 319 352 70 78 271 307 343 11 23 30 29 30 42 57 60 59 63 68 66 62 61 60 57 57 56 56 59 52 32 18 28 37 48 60 60 46 278 236 229 225 221 219 222 224 224 221 222 226 230 229 228 229 231
301 306 44 333 356 359 343 339 350 358 6 70 64 14 285 343 10 19 20 27 34 34 41 49 52 54 55 56 59 59 56 55 53 49 48 54 61 53 32 11 18 33 48 61 72 227 251 252 240 231 231 232 232 233 232 225 221 224 230 232 230 228 228
318 324 12 29 133 336 341 349 7 21 46 93 7 358 22 22 25 22 17 23 29 33 44 49 47 49 49 48 51 51 49 51 51 48 49 53 54 43 22 6 14 36 50 40 304 266 278 285 270 243 237 239 242 245 242 236 230 228 230 231 231 229 228
17 60 6 40 191 318 351 12 17 16 68 80 50 36 34 27 26 22 16 17 21 27 42 49 45 45 45 44 47 46 42 42 45 47 51 54 51 37 11 357 5 32 59 24 339 305 307 313 311 276 243 239 239 239 239 239 237 231 229 227 226 226 227
359 202 232 247 304 339 4 22 7 359 41 64 52 43 37 27 25 24 16 14 16 21 31 40 41 42 41 39 40 41 37 33 32 36 44 54 51 34 4 353 3 23 66 27 355 325 324 330 117 131 185 210 215 221 226 232 235 230 228 227 223 220 224
328 272 249 299 357 1 7 13 3 3 27 45 43 41 35 25 24 23 17 16 18 19 25 32 34 36 36 33 30 30 29 26 22 22 26 36 39 25 4 357 5 15 28 7 343 320 306 256 216 213 196 186 197 210 215 219 223 222 225 229 227 220 219
358 339 336 344 347 348 343 339 351 16 36 40 37 35 31 26 26 24 20 17 17 19 23 28 29 31 31 28 24 23 22 19 15 13 10 7 15 19 7 357 359 10 15 358 330 316 315 294 256 252 243 205 199 208 213 217 216 211 212 222 227 223 217
356 312 324 332 324 310 306 327 4 31 40 35 28 28 27 20 16 19 20 17 14 15 19 21 22 23 23 20 18 18 18 13 6 6 5 359 356 5 1 351 347 352 3 4 343 328 327 315 281 262 259 252 233 212 211 220 218 209 201 200 207 211 208
319 291 353 358 342 318 324 4 14 15 18 21 19 18 19 13 6 4 8 8 7 9 14 16 15 14 16 15 10 11 12 4 356 359 2 359 355 354 349 346 344 338 341 353 342 339 346 331 303 283 277 271 254 224 210 208 206 206 201 190 185 190 193
312 323 2 10 358 314 340 0 357 348 352 7 12 7 8 11 7 356 351 353 354 356 6 12 8 5 7 8 2 0 1 355 349 350 350 345 339 334 334 345 339 321 322 341 340 342 351 329 312 299 291 283 265 232 214 198 183 195 200 195 188 187 190
302 312 330 342 340 315 330 335 329 326 334 342 346 350 353 358 357 347 339 339 338 337 345 358 2 358 358 359 355 349 344 341 343 341 333 329 332 330 333 336 320 311 318 324 325 332 328 315 312 312 311 303 274 231 214 192 173 175 191 196 193 192 194
304 306 313 318 315 310 317 314 307 308 316 316 316 322 324 326 334 334 326 324 325 327 333 343 351 350 345 344 346 340 333 334 340 329 317 318 325 322 311 296 286 290 292 285 297 312 308 303 307 313 318 312 252 219 208 184 171 162 175 192 195 193 195
303 301 304 305 301 298 300 297 292 297 304 305 305 309 309 314 326 333 330 330 329 328 329 333 337 338 334 334 335 331 326 327 325 313 304 308 314 309 300 284 266 256 262 275 285 287 287 300 312 318 324 323 249 209 186 166 174 165 163 175 178 176 181
Height
1376 1381 1382 1380 1390 1402 1404 1404 1410 1408 1404 1414 1430 1434 1426 1430 1447 1444 1431 1428 1421 1414 1408 1395 1394 1397 1392 1393 1394 1395 1400 1402 1407 1414 1417 1422 1427 1430 1434 1438 1443 1447 1451 1455 1458 1461 1465 1469 1473 1476 1479 1481 1483 1486 1489 1493 1497 1500 1502 1505 1507 1509 1511
1375 1372 1377 1378 1378 1385 1398 1405 1403 1399 1404 1411 1421 1435 1436 1441 1455 1444 1428 1431 1429 1428 1423 1403 1396 1400 1396 1393 1391 1392 1396 1399 1404 1408 1411 1416 1421 1425 1430 1433 1439 1443 1447 1450 1454 1457 1460 1463 1466 1470 1474 1478 1482 1485 1487 1491 1494 1497 1500 1502 1505 1507 1508
1374 1367 1378 1386 1378 1374 1384 1391 1389 1398 1417 1422 1420 1430 1440 1448 1455 1442 1428 1427 1424 1423 1418 1404 1399 1400 1395 1392 1390 1389 1393 1397 1401 1405 1408 1413 1417 1423 1428 1432 1436 1440 1443 1447 1449 1453 1456 1459 1463 1467 1472 1477 1480 1483 1485 1488 1490 1493 1497 1500 1503 1506 1507
1369 1370 1379 1389 1386 1377 1377 1382 1386 1393 1406 1415 1416 1419 1423 1434 1444 1440 1432 1427 1418 1408 1399 1394 1394 1391 1389 1390 1388 1387 1390 1392 1396 1402 1406 1411 1416 1420 1424 1429 1433 1436 1439 1443 1445 1449 1452 1456 1461 1465 1470 1473 1475 1479 1482 1484 1487 1491 1495 1498 1501 1504 1506
1367 1374 1373 1376 1380 1381 1382 1388 1393 1395 1397 1402 1408 1412 1411 1418 1431 1433 1432 1430 1413 1389 1378 1380 1382 1380 1381 1382 1382 1384 1386 1387 1392 1397 1402 1408 1412 1416 1420 1424 1428 1432 1436 1439 1442 1446 1450 1454 1459 1462 1466 1469 1471 1475 1477 1479 1483 1486 1490 1494 1498 1501 1503
1369 1367 1359 1359 1367 1373 1379 1386 1389 1392 1395 1401 1413 1421 1411 1408 1418 1420 1423 1427 1407 1377 1366 1369 1370 1371 1372 1373 1376 1380 1382 1384 1388 1392 1397 1403 1406 1411 1415 1419 1424 1429 1432 1436 1440 1444 1448 1452 1455 1458 1462 1466 1468 1471 1472 1475 1478 1481 1485 1490 1493 1497 1500
1366 1357 1350 1352 1359 1363 1371 1378 1379 1381 1387 1395 1411 1422 1414 1408 1412 1408 1411 1420 1403 1372 1360 1359 1359 1362 1364 1367 1371 1375 1378 1382 1385 1389 1393 1398 1403 1408 1412 1416 1421 1425 1429 1433 1437 1441 1445 1448 1451 1455 1458 1461 1465 1467 1468 1471 1473 1477 1481 1485 1489 1493 1496
1362 1355 1347 1347 1353 1361 1372 1374 1371 1375 1381 1384 1393 1401 1402 1408 1413 1408 1414 1422 1402 1371 1356 1351 1353 1358 1362 1366 1370 1373 1376 1378 1381 1386 1390 1396 1402 1407 1411 1414 1418 1422 1427 1431 1435 1438 1442 1445 1448 1452 1455 1458 1461 1464 1466 1467 1469 1473 1478 1482 1486 1490 1492
1378 1371 1362 1359 1358 1362 1370 1372 1369 1371 1373 1377 1384 1388 1393 1405 1408 1405 1415 1421 1400 1373 1360 1354 1356 1361 1364 1366 1368 1371 1373 1375 1378 1382 1386 1393 1400 1404 1408 1412 1416 1420 1424 1428 1432 1435 1438 1441 1445 1448 1452 1456 1459 1461 1463 1465 1467 1470 1475 1479 1482 1485 1488
1396 1388 1377 1369 1363 1362 1366 1367 1368 1370 1370 1375 1383 1389 1398 1407 1403 1399 1407 1411 1395 1377 1368 1364 1363 1365 1367 1367 1367 1369 1371 1374 1377 1381 1384 1389 1395 1400 1405 1409 1414 1418 1422 1425 1428 1432 1435 1438 1441 1445 1448 1452 1456 1459 1462 1464 1465 1468 1472 1476 1479 1481 1484
1395 1385 1371 1359 1355 1362 1369 1369 1368 1370 1369 1371 1377 1389 1399 1400 1399 1401 1399 1396 1393 1385 1376 1371 1368 1367 1370 1371 1369 1370 1371 1372 1377 1381 1384 1387 1391 1397 1401 1406 1412 1416 1419 1422 1425 1428 1432 1435 1438 1442 1445 1449 1453 1456 1459 1462 1464 1466 1469 1473 1475 1478 1480
1382 1374 1365 1354 1351 1357 1363 1366 1368 1368 1368 1369 1375 1386 1389 1387 1397 1406 1394 1386 1393 1390 1378 1374 1371 1369 1372 1373 1370 1370 1371 1371 1375 1379 1383 1387 1390 1395 1399 1404 1409 1412 1416 1419 1422 1426 1429 1433 1437 1440 1443 1446 1449 1453 1456 1459 1462 1464 1467 1470 1472 1475 1477
1374 1365 1360 1355 1353 1353 1354 1360 1364 1364 1365 1369 1374 1379 1378 1379 1392 1399 1388 1383 1391 1386 1377 1374 1371 1368 1371 1371 1370 1371 1372 1372 1375 1378 1382 1387 1391 1395 1398 1402 1406 1410 1414 1417 1421 1425 1428 1432 1436 1438 1441 1444 1447 1450 1453 1455 1459 1461 1464 1466 1469 1471 1473
1372 1364 1359 1356 1355 1355 1355 1358 1359 1360 1362 1365 1369 1373 1372 1373 1381 1383 1381 1384 1385 1379 1373 1371 1368 1366 1367 1368 1369 1372 1374 1374 1377 1382 1385 1389 1392 1395 1399 1402 1406 1410 1413 1417 1420 1424 1427 1431 1434 1436 1439 1441 1444 1447 1449 1452 1455 1458 1461 1463 1465 1467 1469
1377 1367 1362 1360 1360 1359 1359 1360 1358 1358 1361 1362 1366 1370 1369 1372 1377 1377 1379 1385 1383 1374 1368 1368 1368 1366 1368 1371 1372 1374 1377 1378 1380 1385 1389 1391 1394 1397 1400 1404 1407 1410 1413 1416 1419 1422 1426 1429 1432 1435 1437 1439 1442 1445 1447 1450 1453 1456 1459 1460 1461 1464 1466
1386 1371 1369 1370 1362 1359 1362 1363 1360 1361 1363 1363 1363 1365 1366 1370 1375 1377 1381 1386 1383 1372 1366 1369 1370 1369 1372 1376 1376 1377 1380 1381 1383 1386 1389 1393 1396 1399 1402 1405 1408 1411 1413 1416 1418 1422 1425 1428 1431 1434 1436 1438 1440 1443 1445 1448 1451 1454 1456 1457 1459 1461 1463
1395 1377 1376 1373 1369 1375 1377 1365 1358 1359 1362 1361 1359 1360 1363 1363 1367 1377 1382 1380 1374 1366 1366 1371 1375 1375 1377 1378 1379 1381 1382 1384 1387 1389 1391 1394 1397 1400 1403 1406 1409 1411 1414 1416 1419 1421 1424 1426 1429 1432 1434 1436 1438 1440 1443 1446 1449 1452 1453 1455 1456 1458 1460
1406 1387 1379 1377 1385 1394 1380 1355 1348 1354 1359 1360 1358 1358 1361 1359 1359 1365 1369 1368 1365 1364 1366 1372 1375 1377 1378 1379 1381 1383 1385 1388 1391 1393 1395 1398 1401 1402 1404 1407 1409 1412 1414 1417 1419 1421 1424 1427 1429 1432 1434 1436 1438 1440 1442 1445 1447 1449 1451 1453 1454 1455 1456
1410 1394 1390 1398 1403 1388 1361 1346 1346 1350 1354 1356 1354 1356 1360 1364 1364 1361 1361 1365 1367 1366 1366 1369 1372 1375 1378 1381 1383 1384 1388 1391 1393 1396 1398 1400 1402 1404 1406 1408 1410 1413 1415 1418 1420 1422 1425 1427 1429 1431 1433 1435 1437 1439 1441 1443 1445 1446 1448 1450 1451 1452 1453
1409 1403 1402 1405 1394 1367 1349 1349 1351 1352 1356 1355 1357 1370 1378 1377 1374 1368 1362 1362 1364 1367 1369 1368 1371 1374 1377 1382 1387 1388 1391 1394 1396 1399 1400 1401 1403 1405 1408 1410 1411 1414 1417 1419 1421 1423 1425 1427 1428 1430 1432 1434 1435 1437 1439 1441 1442 1444 1446 1447 1448 1449 1450
1413 1415 1406 1390 1376 1366 1365 1371 1370 1368 1368 1360 1360 1379 1388 1380 1375 1374 1368 1362 1361 1366 1372 1371 1372 1374 1378 1387 1394 1395 1396 1398 1399 1402 1403 1404 1406 1407 1409 1412 1413 1415 1418 1420 1421 1423 1424 1426 1427 1428 1431 1432 1433 1435 1437 1438 1440 1442 1443 1444 1445 1446 1446
1414 1418 1411 1394 1388 1389 1390 1391 1381 1369 1367 1359 1355 1373 1391 1388 1382 1382 1380 1373 1367 1366 1370 1373 1372 1375 1387 1401 1404 1401 1400 1401 1401 1403 1405 1406 1408 1410 1412 1414 1415 1416 1418 1419 1420 1422 1423 1425 1426 1427 1430 1431 1432 1434 1434 1435 1438 1439 1440 1440 1442 1443 1444
1416 1419 1418 1407 1402 1403 1400 1393 1379 1368 1366 1357 1351 1378 1406 1402 1391 1389 1388 1385 1379 1371 1371 1374 1375 1384 1402 1412 1409 1404 1404 1404 1403 1405 1407 1408 1410 1411 1412 1414 1416 1418 1419 1419 1420 1421 1422 1423 1425 1426 1428 1429 1431 1432 1432 1433 1435 1435 1436 1437 1439 1440 1442
1417 1416 1418 1410 1407 1408 1402 1391 1381 1373 1363 1352 1364 1405 1426 1409 1396 1396 1393 1391 1389 1382 1378 1379 1383 1394 1407 1411 1408 1407 1407 1406 1407 1407 1409 1411 1412 1413 1413 1414 1416 1417 1418 1419 1419 1420 1421 1422 1423 1424 1425 1427 1428 1429 1430 1431 1432 1432 1433 1434 1437 1439 1440
1419 1418 1418 1413 1410 1409 1402 1395 1386 1371 1360 1368 1397 1426 1428 1410 1402 1401 1396 1395 1397 1392 1388 1389 1393 1400 1405 1406 1408 1409 1408 1409 1410 1410 1412 1413 1414 1415 1415 1416 1417 1418 1418 1419 1419 1420 1421 1422 1423 1423 1424 1424 1425 1426 1427 1429 1429 1430 1431 1432 1434 1436 1438
1421 1419 1418 1417 1415 1409 1401 1399 1389 1372 1377 1404 1423 1423 1417 1411 1407 1403 1399 1400 1402 1399 1397 1398 1400 1404 1405 1404 1406 1408 1409 1412 1413 1413 1415 1416 1416 1418 1417 1418 1419 1420 1420 1420 1421 1421 1421 1422 1423 1423 1423 1423 1424 1424 1425 1426 1427 1427 1428 1429 1431 1433 1434
1420 1421 1423 1427 1427 1416 1404 1402 1397 1390 1402 1422 1423 1415 1414 1413 1408 1405 1404 1403 1404 1406 1405 1404 1404 1405 1405 1405 1406 1408 1411 1413 1413 1415 1417 1417 1418 1419 1418 1419 1421 1421 1421 1422 1422 1422 1422 1422 1422 1423 1423 1423 1423 1423 1424 1424 1424 1425 1425 1426 1427 1429 1431
1428 1435 1436 1432 1429 1420 1411 1411 1414 1413 1416 1419 1418 1416 1416 1413 1411 1410 1408 1406 1407 1409 1409 1408 1408 1408 1408 1408 1409 1411 1413 1414 1415 1416 1417 1418 1420 1421 1420 1421 1422 1422 1423 1422 1422 1422 1422 1421 1422 1422 1421 1422 1422 1422 1422 1422 1422 1423 1423 1424 1425 1426 1428
1429 1432 1430 1425 1422 1420 1418 1418 1420 1420 1419 1418 1419 1419 1418 1417 1416 1415 1413 1412 1412 1411 1410 1410 1410 1410 1411 1412 1412 1414 1416 1417 1417 1418 1419 1420 1421 1422 1422 1423 1423 1423 1423 1423 1422 1422 1421 1421 1422 1421 1420 1421 1421 1420 1421 1420 1421 1421 1422 1422 1423 1424 1426
1427 1424 1422 1421 1422 1422 1422 1422 1423 1422 1421 1420 1420 1420 1421 1421 1421 1419 1418 1417 1416 1416 1415 1413 1411 1411 1413 1412 1413 1415 1417 1417 1418 1419 1420 1421 1421 1422 1423 1424 1423 1423 1423 1422 1421 1421 1421 1421 1422 1420 1420 1420 1419 1419 1419 1419 1419 1420 1421 1421 1421 1422 1424
1431 1428 1423 1422 1422 1423 1423 1424 1424 1423 1422 1422 1422 1422 1423 1423 1422 1421 1420 1419 1419 1419 1418 1415 1414 1414 1414 1414 1416 1417 1418 1419 1419 1419 1420 1421 1422 1423 1424 1424 1424 1423 1423 1422 1421 1420 1420 1421 1420 1420 1420 1419 1418 1418 1418 1418 1418 1419 1419 1420 1420 1421 1422
1432 1431 1427 1424 1423 1422 1423 1426 1426 1425 1425 1424 1422 1422 1422 1422 1422 1421 1421 1421 1421 1419 1418 1416 1415 1414 1415 1416 1418 1418 1419 1420 1420 1421 1422 1423 1423 1424 1424 1424 1424 1423 1422 1422 1421 1420 1420 1420 1419 1419 1419 1418 1418 1417 1416 1417 1417 1417 1418 1419 1419 1420 1421
1431 1430 1428 1427 1426 1424 1425 1427 1428 1427 1427 1425 1424 1423 1422 1421 1420 1419 1420 1421 1421 1420 1419 1417 1416 1416 1417 1418 1419 1420 1421 1421 1422 1423 1423 1423 1424 1424 1424 1424 1423 1423 1422 1421 1421 1420 1420 1419 1419 1419 1418 1417 1417 1416 1416 1415 1415 1416 1417 1418 1419 1420 1421
1436 1433 1433 1435 1435 1434 1431 1430 1430 1429 1428 1427 1426 1425 1423 1422 1421 1421 1422 1422 1423 1422 1421 1420 1419 1420 1420 1421 1422 1423 1422 1423 1424 1424 1424 1424 1425 1424 1424 1424 1423 1422 1422 1421 1421 1421 1420 1419 1419 1418 1417 1417 1416 1415 1415 1415 1414 1415 1416 1417 1418 1419 1420
1440 1435 1434 1436 1438 1437 1435 1432 1430 1429 1428 1428 1428 1427 1427 1426 1426 1426 1426 1426 1426 1425 1424 1424 1424 1423 1423 1424 1424 1424 1423 1424 1424 1425 1425 1425 1425 1424 1424 1424 1423 1422 1422 1421 1421 1420 1420 1419 1418 1418 1417 1417 1416 1415 1414 1414 1414 1415 1415 1416 1417 1417 1418
1438 1434 1434 1434 1434 1436 1436 1433 1428 1426 1427 1427 1427 1427 1428 1428 1428 1429 1429 1428 1428 1427 1426 1426 1426 1426 1426 1425 1425 1425 1425 1425 1425 1425 1426 1425 1425 1425 1424 1423 1422 1422 1421 1421 1420 1420 1419 1419 1418 1417 1417 1416 1415 1415 1414 1414 1414 1415 1415 1416 1416 1417 1418
1437 1434 1433 1431 1430 1431 1433 1432 1428 1425 1426 1426 1426 1426 1427 1428 1429 1430 1430 1429 1429 1428 1427 1427 1427 1427 1427 1426 1426 1426 1426 1426 1426 1426 1426 1425 1425 1424 1423 1423 1422 1422 1421 1421 1420 1420 1419 1418 1418 1417 1416 1416 1415 1415 1415 1414 1415 1415 1415 1416 1416 1417 1418